STARLINK-32537, 61923

Orbit data source: Space-Track

STARLINK-32537, 61923 is a payload satellite owned by SpaceX/Seattle (US) in LEO that was launched on Mon, 11 Nov 2024 UTC via an FALCON 9 launch vehicle from the Air Force Eastern Test Range (AFETR). Payload-class satellites include a variety of spacecraft equipped with specific instruments for various scientific and technological missions. These include communications satellites like Starlink; space stations such as the ISS; scientific satellites like the Hubble; Earth observation satellites from companies like Planet Labs, Umbra, and HawkEye 360; GPS; miniature CubeSats for education and research; and military/defense satellites.

Loading next visibility...
Identifier
61923, 2024-207M
Orbit
LEO
Country
Flag of USUS
Related business
Manufacturer
SpaceX/Seattle
Mission
Operational Commercial Communications
Bus & Motor
STARLINK V2M, Unknown motor
Mass
730 kg wet, ~700 kg dry
Launch date (UTC)
2024-11-11 (2 years ago)
Launch vehicle
FALCON 9
Launch site
Air Force Eastern Test Range (AFETR)
Object type
Payload
Rocket body
Debris
Shape & HBR
Box + 2 Pan, 17.7 m
Radar Cross Section
33.884 m², Large (>1 m²)

Expand to show TLE details & history
Last TLE update: 10 hours ago

TLE from 10 hours ago
0 STARLINK-32537
1 61923U 24207M   26145.49803886  .00011400  00000-0  42304-3 0  9992
2 61923  43.0043 211.8823 0001448 272.0362  88.0324 15.27589508 86426
Epoch: 2026-05-25T11:57Z
TLE epoch observation values (Epoch: 2026-05-25T11:57:10.557Z)
Latitude
-0.00001°
Longitude
149.50333°
Altitude
482.763 km
Speed
7.626 km/s
True Right ascension
14h 07m 31s
True Declination
0° 00' 00"
Sunlit
Object was in full shadow at epoch
Visualization orbit readout
Latitude
Unknown
Longitude
Unknown
Altitude
Unknown
Speed
Unknown
Apparent Right ascension
Unknown
Apparent Declination
Unknown
Sunlit
N/A
Visualization observer readout
Local Sidereal Time
07:17:06
Azimuth
Unknown
Elevation
Unknown
Doppler factor
Unknown
Orbital elements
Apogee altitude
485.959 km
Perigee altitude
483.971 km
Semi-major axis
6,863.102 km
Eccentricity
0.00014
Inclination
43.0043°
RAAN
211.8823°
Arg. of periapsis
272.0362°
True anomaly
88.04898°
Mean anomaly
88.0324°
Eccentric anomaly
88.04069°
Mean motion
3.81735 °/min
Orbital period
94.31 mins
BSTAR
0.00042304
Loading maneuver chart data...
Computing Atmospheric mass density...
Loading historical data...
Loading historical data...
Loading historical data...
Loading historical data...
Loading historical data...
Loading historical data...
Loading historical data...

Documentation

Showing up to 5 results
|